This is the latest recevied weather packets stored in our database for station/object M0JUI-1. If no packets are shown the sender has not sent any weather packets the latest 10 day(s).
| Time | Temp. | Humidity | Pressure | Rain* | Wind** | Luminosity | Snow |
|---|---|---|---|---|---|---|---|
| 1787847752 | 18.33° C | 10% | 1007.9 hPa | 0 mm | - | 168 W/m² | - |
| 1787847452 | 18.89° C | 11% | 1008 hPa | 0 mm | - | 167 W/m² | - |
| 1787847154 | 18.33° C | 12% | 1008 hPa | 0 mm | - | 141 W/m² | - |
| 1787846852 | 18.89° C | 14% | 1007.9 hPa | 0 mm | - | 132 W/m² | - |
| 1787846552 | 18.33° C | 14% | 1007.8 hPa | 0 mm | - | 150 W/m² | - |
| 1787846252 | 18.33° C | 15% | 1007.9 hPa | 0.25 mm | - | 163 W/m² | - |
| 1787845952 | 18.33° C | 15% | 1007.8 hPa | 0.25 mm | - | 163 W/m² | - |
| 1787845652 | 17.78° C | 16% | 1008.1 hPa | 0.25 mm | - | 148 W/m² | - |
| 1787845352 | 18.33° C | 16% | 1007.8 hPa | 0.25 mm | - | 153 W/m² | - |
| 1787845052 | 18.33° C | 17% | 1008 hPa | 0.25 mm | - | 154 W/m² | - |
| 1787844753 | 18.33° C | 17% | 1008.2 hPa | 0.25 mm | - | 161 W/m² | - |
| 1787844440 | 18.33° C | 18% | 1008.2 hPa | 0.25 mm | - | 166 W/m² | - |
| 1787844140 | 17.78° C | 18% | 1008.1 hPa | 0.25 mm | - | 168 W/m² | - |
| 1787843841 | 17.78° C | 18% | 1008 hPa | 0.25 mm | - | 153 W/m² | - |
| 1787843528 | 17.78° C | 18% | 1007.8 hPa | 0.25 mm | - | 123 W/m² | - |
| 1787843229 | 17.78° C | 18% | 1007.7 hPa | 0.25 mm | - | 85 W/m² | - |
| 1787842922 | 17.78° C | 18% | 1007.9 hPa | 0.25 mm | - | 50 W/m² | - |
| 1787842616 | 17.78° C | 18% | 1007.7 hPa | 0 mm | - | 41 W/m² | - |
| 1787842317 | 17.78° C | 19% | 1008.1 hPa | 0.25 mm | - | 50 W/m² | - |
| 1787842017 | 17.78° C | 19% | 1008.5 hPa | 0.25 mm | - | 76 W/m² | - |
| 1787841704 | 17.78° C | 19% | 1008.5 hPa | 0.25 mm | - | 119 W/m² | - |
| 1787841404 | 17.78° C | 19% | 1008.8 hPa | 0.25 mm | - | 104 W/m² | - |
| 1787841104 | 17.78° C | 19% | 1008.9 hPa | 0.25 mm | - | 92 W/m² | - |
| 1787840807 | 17.78° C | 19% | 1009 hPa | 0.25 mm | - | 104 W/m² | - |
| 1787840504 | 17.78° C | 19% | 1008.7 hPa | 0.25 mm | - | 89 W/m² | - |
* Rain latest hour (hover to see other rain measurements)
** Current wind speed in m/s (hover to see current wind gust speed)